Regional Weather Roundup
Issued by NWS Boston, MA

Current Version | Previous Version | Text Only | Print | Product List | Glossary Off
Versions: 1 2 3 4 5 6 7 8 9 10 11 12 13 14 15 16 17 18 19 20 21 22 23 24 25 26 27 28 29 30 31 32 33 34 35 36 37 38 39 40 41 42 43 44 45 46 47 48 49 50
000 ASUS41 KBOX 210310 RWRBOX REGIONAL WEATHER ROUNDUP NATIONAL WEATHER SERVICE BOSTON/NORTON MA 1100 PM EDT MON AUG 20 2018 NOTE: "FAIR" INDICATES FEW OR NO CLOUDS BELOW 12,000 FEET WITH NO SIGNIFICANT WEATHER AND/OR OBSTRUCTIONS TO VISIBILITY. MAZALL-210400- EASTERN MASSACHUSETTS CITY SKY/WX TMP DP RH WIND PRES REMARKS BOSTON FAIR 67 62 84 NE6 30.18S BEVERLY FAIR 60 59 96 CALM 30.17F LAWRENCE FAIR 65 59 81 NE3 30.20F BEDFORD FAIR 60 58 92 CALM 30.17F BLUE HILL N/A 61 61 100 NE8 30.17S NORWOOD FAIR 62 60 93 CALM 30.17S MARSHFIELD FAIR 66 64 94 VRB5 30.17S PLYMOUTH CLOUDY 67 63 87 NE7 30.17S TAUNTON MOCLDY 64 61 90 CALM 30.16S NEW BEDFORD CLOUDY 65 65 100 N3 30.16R $$ MAZALL-210400- CAPE COD AND THE ISLANDS CITY SKY/WX TMP DP RH WIND PRES REMARKS FALMOUTH CLOUDY 66 63 88 NE8 30.16S HYANNIS CLOUDY 68 64 87 NE7 30.14S CHATHAM CLOUDY 67 63 87 NE7 30.15S PROVINCETOWN CLOUDY 65 62 90 NE6 30.17S NANTUCKET CLOUDY 66 65 96 NE10 30.12S MARTHAS VNYRD CLOUDY 68 65 90 N8 30.14S $$ MAZALL-210400- CENTRAL AND WESTERN MASSACHUSETTS CITY SKY/WX TMP DP RH WIND PRES REMARKS WORCESTER FAIR 60 57 89 N6 30.20S FITCHBURG FAIR 59 57 93 CALM 30.20S ORANGE FAIR 61 59 93 CALM 30.20S SPRINGFIELD PTCLDY 61 60 94 CALM 30.17S WESTFIELD FAIR 62 61 96 CALM 30.18R NORTH ADAMS FAIR 65 59 81 E6 30.18R PITTSFIELD CLOUDY 62 58 86 N5 30.18S $$ RIZALL-210400- RHODE ISLAND CITY SKY/WX TMP DP RH WIND PRES REMARKS PROVIDENCE FAIR 64 60 87 NE7 30.17F NEWPORT FAIR 65 62 90 NE6 30.16S BLOCK ISLAND MOCLDY 66 63 90 NE8 30.16S SMITHFIELD FAIR 62 60 93 NE5 30.18F WESTERLY FAIR 64 62 93 CALM 30.17S $$ CTZALL-210400- CONNECTICUT CITY SKY/WX TMP DP RH WIND PRES REMARKS BRADLEY INTL FAIR 65 60 84 N3 30.17S HARTFORD FAIR 65 59 81 CALM 30.16S BRIDGEPORT CLOUDY 71 65 81 SE6 30.14F DANBURY CLOUDY 68 66 93 CALM 30.17S GROTON FAIR 65 60 84 NE7 30.15S NEW HAVEN CLOUDY 71 66 84 CALM 30.15S CHESTER FAIR 66 59 77 VRB3 30.16F MERIDEN CLOUDY 65 61 87 CALM 30.16S WILLIMANTIC FAIR 62 60 93 CALM 30.17F OXFORD CLOUDY 68 65 90 E3 30.18S $$ MEZ002-015-021-024-NHZ003-005-008-011-012-014-VTZ005-008-210400- NORTHERN NEW ENGLAND CITY SKY/WX TMP DP RH WIND PRES REMARKS PORTLAND ME FAIR 60 58 92 W3 30.20S BANGOR ME FAIR 62 58 86 SW5 30.20S CONCORD NH FAIR 60 57 89 CALM 30.19F MANCHESTER NH FAIR 65 58 78 CALM 30.17F NASHUA NH FAIR 61 59 93 NW5 30.19F PORTSMOUTH NH PTCLDY 63 59 89 N3 30.18S JAFFREY NH FAIR 57 57 100 CALM 30.22S KEENE NH FAIR N/A N/A N/A CALM 30.20R BURLINGTON VT FAIR 67 57 70 SE3 30.13S MT. WASHINGTON PTCLDY 46 45 93 NE10 N/A $$ NYZ052-076-210400- EASTERN NEW YORK CITY SKY/WX TMP DP RH WIND PRES REMARKS ALBANY MOCLDY 71 60 68 S5 30.15S NEW YORK CITY MOCLDY 72 63 73 SE6 30.14S $$ ANZALL-210400- MARINE OBSERVATIONS STATION/POSITION TIME TEMP WIND PRES VSBY WAVE AIR SEA DIR/SP/G HT/PER (UTC) (F) (DEG/KT/KT) (MB) (MI) (FT/S) BOSTON BUOY 0250 67 69 40/ 8/ 10 1021.1R 4/ 7 BUZZARDS BAY 0200 67 20/ 16/ 17 1021.2R NANTUCKET SOUND 0250 69 75 40/ 16/ 19 1020.4R 2/ 3 MASS BAY-STELLWA 0204 67 68 50/ 8/ 10 1020.0F 1 7/8 4/ 6 ISLE OF SHOALS 0200 65 80/ 6/ 7 1021.8R S OF BLOCK IS 0243 70 N/A 3/ 8 $$ ......................KEY......................... SKY/WX - SKY CONDITION/PRESENT WEATHER TMP - TEMPERATURE IN FAHRENHEIT DWPT - DEWPOINT IN FAHRENHEIT RH - RELATIVE HUMIDITY IN PERCENT WIND - DIRECTION AND SPEED IN MPH PRES - MEAN SEA LEVEL PRESSURE IN INCHES OF HG WCI - WIND CHILL INDEX VSB - VISIBILITY IN MILES HX - HEAT INDEX TC - TEMPERATURE IN CELSIUS VRB - VARIABLE WIND DIRECTION N/A - NOT AVAILABLE

USA.gov is the U.S. government's official web portal to all federal, state and local government web resources and services.